Stations météo

réclame
Mon MeteoGroup
Sa Pobla, Espagne (8312): Température de l'air & dewpoint: 12.12.2017 15:00:00 - 18.12.2017 15:00:00 (CET)Sa Pobla, Espagne (8312): Vitesse du vent & gusts: 12.12.2017 15:00:00 - 18.12.2017 15:00:00 (CET)Sa Pobla, Espagne (8312): Direction du vent: 12.12.2017 15:00:00 - 18.12.2017 15:00:00 (CET)Sa Pobla, Espagne (8312): reduced air pressure: 12.12.2017 15:00:00 - 18.12.2017 15:00:00 (CET)Sa Pobla, Espagne (8312): visibility: 12.12.2017 15:00:00 - 18.12.2017 15:00:00 (CET)Sa Pobla, Espagne (8312): Ensoleillement: 12.12.2017 15:00:00 - 18.12.2017 15:00:00 (CET)Sa Pobla, Espagne (8312): Quantités de précipitations: 12.12.2017 15:00:00 - 18.12.2017 15:00:00 (CET)
Date & Time tt [°C] td [°C] ff [km/h] ff [knt] fx [km/h] fx [knt] dd ppp [hPa] vv [km] sd [min] rr [mm]
18.12.2017 15:00:00 13,3 4,5 8 4 19 10 SW 1025,5 20 0 0,0
18.12.2017 14:00:00 13,9 4,1 8 4 19 10 WSW 1026,5 20 0 0,0
18.12.2017 13:00:00 14,5 3,2 9 5 24 13 SW 1028,0 20 43 -
18.12.2017 12:00:00 14,3 5,6 9 5 19 11 SSW 1029,3 20 60 0,0
18.12.2017 11:00:00 11,9 6,5 6 3 14 8 S 1030,1 20 60 0,0
18.12.2017 10:00:00 7,7 5,0 6 4 12 7 S 1030,5 20 60 0,0
18.12.2017 09:00:00 4,1 3,0 6 3 11 6 S 1030,5 20 27 0,0
18.12.2017 08:00:00 2,7 1,5 6 3 9 5 W 1030,6 20 0 0,0
18.12.2017 07:00:00 2,7 1,3 5 3 13 7 SW 1030,3 20 0 -
18.12.2017 06:00:00 3,0 1,5 7 4 13 7 S 1030,1 20 0 0,0
18.12.2017 05:00:00 3,5 1,5 4 2 11 6 SW 1030,2 20 0 0,0
18.12.2017 04:00:00 3,1 0,9 6 4 13 7 S 1030,6 20 0 0,0
18.12.2017 03:00:00 3,9 1,7 10 5 16 9 S 1030,7 20 0 0,0
18.12.2017 02:00:00 2,8 0,6 3 2 12 7 S 1030,9 20 0 0,0
18.12.2017 01:00:00 3,6 1,3 5 3 15 8 SSW 1031,1 20 0 -
18.12.2017 00:00:00 3,9 1,7 8 4 14 8 SSW 1031,0 20 0 0,0
17.12.2017 23:00:00 3,6 1,7 5 3 11 6 SW 1031,0 20 0 0,0
17.12.2017 22:00:00 4,4 1,5 8 4 12 7 S 1030,7 20 0 0,0
17.12.2017 21:00:00 5,2 1,7 5 3 14 8 SSW 1030,4 20 0 0,0
17.12.2017 20:00:00 4,7 2,1 5 3 9 5 SSE 1030,1 20 0 0,0
17.12.2017 19:00:00 7,0 2,5 6 4 13 7 W 1029,5 20 0 -
17.12.2017 18:00:00 7,9 3,9 4 2 6 4 WNW 1028,9 20 0 0,0
17.12.2017 17:00:00 11,7 3,9 3 1 9 5 SE 1028,1 20 36 0,0
17.12.2017 16:00:00 13,3 1,3 5 3 16 8 E 1027,6 20 60 0,0
17.12.2017 15:00:00 13,0 2,3 12 6 23 12 N 1027,5 20 60 0,0
17.12.2017 14:00:00 13,5 2,5 9 5 19 11 NNW 1027,8 20 54 0,0
17.12.2017 13:00:00 12,3 5,3 3 2 14 7 N 1028,3 20 40 -
17.12.2017 12:00:00 10,0 4,8 9 5 17 9 N 1028,9 20 18 0,2
17.12.2017 11:00:00 8,7 4,6 8 5 19 10 NNE 1028,8 20 0 0,8
17.12.2017 10:00:00 8,2 4,3 5 3 13 7 SW 1027,8 20 51 0,0
17.12.2017 09:00:00 4,3 2,1 6 3 10 5 S 1027,1 20 17 0,0
17.12.2017 08:00:00 4,6 1,9 5 3 11 6 SW 1026,6 20 0 0,0
17.12.2017 07:00:00 5,2 2,5 6 4 10 5 W 1025,9 20 0 -
17.12.2017 06:00:00 7,0 2,5 5 3 21 11 NNE 1025,6 20 0 0,0
17.12.2017 05:00:00 7,3 2,5 10 5 19 10 N 1025,1 20 0 0,0
17.12.2017 04:00:00 6,4 4,6 6 3 16 9 NNW 1025,2 20 0 0,0
17.12.2017 03:00:00 7,4 6,1 6 3 14 8 N 1025,0 20 0 0,0
17.12.2017 02:00:00 7,5 5,8 4 2 26 14 ESE 1024,4 20 0 0,6
17.12.2017 01:00:00 6,8 5,0 6 4 20 11 WNW 1023,7 20 0 -
17.12.2017 00:00:00 5,9 4,8 7 4 21 11 ENE 1023,9 20 0 0,0
16.12.2017 23:00:00 5,1 3,8 8 4 10 5 S 1022,7 10 0 0,0
16.12.2017 22:00:00 5,6 3,9 7 4 13 7 S 1022,3 13 0 0,0
16.12.2017 21:00:00 6,0 3,4 6 3 10 5 S 1022,1 20 0 0,0
16.12.2017 20:00:00 7,2 3,9 4 2 12 6 SSW 1021,8 20 0 0,0
16.12.2017 19:00:00 8,5 3,9 6 3 16 9 S 1020,9 20 0 -
16.12.2017 18:00:00 10,2 3,4 8 5 14 8 N 1019,9 20 0 0,0
16.12.2017 17:00:00 12,4 5,1 5 3 19 11 WSW 1019,1 20 35 0,0
16.12.2017 16:00:00 13,3 5,9 11 6 19 10 NNE 1018,3 20 60 0,0
16.12.2017 15:00:00 13,5 6,1 12 7 21 11 N 1017,7 20 60 0,0
16.12.2017 14:00:00 12,5 5,9 13 7 29 16 NNE 1017,8 20 51 0,0
16.12.2017 13:00:00 9,5 5,5 18 10 51 28 NNE 1017,9 20 27 -
16.12.2017 12:00:00 14,7 5,8 8 4 13 7 NNE 1017,3 20 60 0,0
16.12.2017 11:00:00 13,0 5,9 2 1 23 12 SSW 1017,3 20 39 0,0
16.12.2017 10:00:00 10,2 5,9 22 12 34 18 NNE 1016,5 20 8 0,0
16.12.2017 09:00:00 11,3 7,3 5 3 18 10 NW 1014,8 20 15 0,0
16.12.2017 08:00:00 10,1 4,8 14 7 22 12 N 1013,7 20 0 0,0
16.12.2017 07:00:00 8,9 4,6 13 7 17 9 NNE 1012,4 20 0 -
16.12.2017 06:00:00 9,6 4,1 8 4 21 11 NNW 1011,4 20 0 0,0
16.12.2017 05:00:00 8,4 3,6 6 3 17 9 NW 1010,9 20 0 0,0
16.12.2017 04:00:00 9,3 3,8 5 3 28 15 NNW 1010,9 20 0 0,0
16.12.2017 03:00:00 10,1 3,6 4 2 28 15 WSW 1010,5 20 0 0,0
16.12.2017 02:00:00 11,6 4,1 12 6 35 19 WNW 1010,4 20 0 0,0
16.12.2017 01:00:00 11,5 3,9 11 6 24 13 WNW 1010,6 20 0 -
16.12.2017 00:00:00 11,6 3,8 9 5 23 12 WNW 1011,0 20 0 0,0
15.12.2017 23:00:00 11,6 4,1 9 5 23 12 WNW 1010,9 20 0 0,0
15.12.2017 22:00:00 12,1 3,6 8 4 27 15 WNW 1010,6 20 0 0,0
15.12.2017 21:00:00 12,4 4,1 9 5 30 16 WNW 1010,7 20 0 0,0
15.12.2017 20:00:00 12,3 3,9 8 4 26 14 WNW 1010,1 20 0 0,0
15.12.2017 19:00:00 13,9 3,9 8 4 36 20 W 1009,7 20 0 -
15.12.2017 18:00:00 14,3 3,4 8 4 26 14 W 1009,3 20 0 0,0
15.12.2017 17:00:00 14,0 4,3 5 3 29 16 W 1008,7 20 2 0,0
15.12.2017 16:00:00 15,2 3,6 8 4 31 17 WNW 1008,5 20 33 0,0
15.12.2017 15:00:00 16,1 5,1 19 10 36 19 WNW 1008,1 20 58 0,0
15.12.2017 14:00:00 15,9 6,5 19 10 39 21 WNW 1007,6 20 40 0,0
15.12.2017 13:00:00 14,2 7,7 14 7 38 20 WNW 1008,5 20 1 -
15.12.2017 12:00:00 14,0 10,0 10 5 26 14 NW 1008,4 20 0 3,8
15.12.2017 11:00:00 15,5 11,9 4 2 16 9 WNW 1008,8 20 0 0,0
15.12.2017 10:00:00 15,1 11,4 4 2 14 7 WNW 1008,2 20 24 0,0
15.12.2017 09:00:00 14,4 11,3 6 3 27 14 SSW 1008,1 20 0 0,0
15.12.2017 08:00:00 13,8 11,4 11 6 28 15 SSW 1007,9 20 0 0,0
15.12.2017 07:00:00 14,4 10,8 13 7 33 18 SSW 1008,3 20 0 -
15.12.2017 06:00:00 14,8 11,2 16 8 36 20 SW 1008,9 18 0 0,0
15.12.2017 05:00:00 14,7 11,1 16 8 30 16 SSW 1009,0 20 0 0,0
15.12.2017 04:00:00 13,9 10,9 13 7 25 14 SSW 1009,8 20 0 0,0
15.12.2017 03:00:00 14,1 10,9 10 5 32 17 S 1010,1 20 0 0,0
15.12.2017 02:00:00 14,5 11,1 18 10 37 20 SSW 1010,2 20 0 0,0
15.12.2017 01:00:00 14,1 10,5 14 8 32 18 SSW 1011,1 20 0 -
15.12.2017 00:00:00 13,9 9,9 15 8 36 19 SSW 1012,1 20 0 0,0
14.12.2017 23:00:00 13,9 9,7 16 9 34 19 SSW 1012,8 20 0 0,0
14.12.2017 22:00:00 13,6 9,4 16 9 29 16 SSW 1013,5 20 0 0,0
14.12.2017 21:00:00 13,1 10,0 13 7 26 14 S 1014,3 20 0 0,0
14.12.2017 20:00:00 13,2 9,0 14 7 29 16 SSW 1014,6 20 0 0,0
14.12.2017 19:00:00 13,3 9,2 13 7 27 14 SSW 1014,8 20 0 -
14.12.2017 18:00:00 13,8 9,7 9 5 27 14 SSW 1015,4 20 0 0,0
14.12.2017 17:00:00 14,7 9,9 16 9 37 20 SSW 1015,8 20 34 0,0
14.12.2017 16:00:00 15,9 10,2 18 10 37 20 SSW 1015,9 20 60 0,0
14.12.2017 15:00:00 16,2 10,3 16 9 42 23 SSW 1016,5 20 59 0,0
14.12.2017 14:00:00 17,2 10,5 18 10 35 19 SSW 1016,8 20 60 0,0
14.12.2017 13:00:00 18,1 11,0 14 7 35 19 SSW 1018,0 20 60 -
14.12.2017 12:00:00 17,7 9,3 15 8 29 16 SW 1018,7 20 60 0,0
14.12.2017 11:00:00 16,4 9,0 14 7 37 20 SSW 1018,7 20 60 0,0
14.12.2017 10:00:00 14,5 8,4 16 9 30 16 SSW 1019,0 20 60 0,0
14.12.2017 09:00:00 13,0 7,7 13 7 32 18 SW 1018,9 20 35 0,0
14.12.2017 08:00:00 12,2 7,3 14 8 32 17 SW 1018,9 20 0 0,0
14.12.2017 07:00:00 12,0 6,7 14 8 29 16 SSW 1019,1 20 0 -
14.12.2017 06:00:00 11,6 6,2 16 9 31 17 SSW 1019,0 20 0 0,0
14.12.2017 05:00:00 11,3 6,1 13 7 28 15 SSW 1019,8 20 0 0,0
14.12.2017 04:00:00 11,3 5,8 12 7 26 14 S 1020,4 20 0 0,0
14.12.2017 03:00:00 10,8 5,6 11 6 27 14 SSW 1020,8 20 0 0,0
14.12.2017 02:00:00 9,5 6,1 11 6 23 12 S 1020,8 20 0 0,0
14.12.2017 01:00:00 8,6 4,8 9 5 19 10 S 1021,6 20 0 -
14.12.2017 00:00:00 8,9 3,9 9 5 20 11 SSW 1022,5 20 0 0,0
13.12.2017 23:00:00 9,5 3,9 12 6 21 12 SSW 1022,9 20 0 0,0
13.12.2017 22:00:00 10,1 4,3 11 6 21 12 SW 1023,4 20 0 0,0
13.12.2017 21:00:00 9,4 3,9 5 3 12 7 S 1024,0 20 0 0,0
13.12.2017 20:00:00 10,9 4,3 6 3 17 9 S 1023,9 20 0 0,0
13.12.2017 19:00:00 11,6 4,3 10 5 27 15 SSW 1024,2 20 0 -
13.12.2017 18:00:00 12,3 4,5 13 7 36 20 SW 1024,3 20 0 0,0
13.12.2017 17:00:00 12,4 4,1 13 7 36 19 SSW 1023,8 20 3 0,0
13.12.2017 16:00:00 13,4 4,3 14 7 36 19 SW 1024,2 20 9 0,0
13.12.2017 15:00:00 14,3 2,9 16 9 33 18 SSW 1024,0 20 18 0,0
13.12.2017 14:00:00 14,8 3,2 14 8 29 16 SSW 1024,7 20 56 0,0
13.12.2017 13:00:00 15,3 3,8 11 6 27 14 SSW 1025,7 20 60 -
13.12.2017 12:00:00 14,7 6,2 9 5 22 12 SSW 1026,3 20 60 11,6
13.12.2017 11:00:00 12,2 7,8 8 4 14 8 S 1027,3 20 60 0,0
13.12.2017 10:00:00 8,8 6,5 5 3 15 8 S 1027,1 20 60 0,0
13.12.2017 09:00:00 5,4 4,6 8 4 14 8 S 1026,6 20 44 0,0
13.12.2017 08:00:00 2,9 2,3 7 4 14 8 S 1026,7 20 0 0,0
13.12.2017 07:00:00 3,1 2,5 7 4 10 6 S 1026,1 20 0 -
13.12.2017 06:00:00 3,6 2,9 7 4 12 6 S 1025,2 20 0 0,0
13.12.2017 05:00:00 4,2 3,2 6 4 10 5 S 1024,9 20 0 0,0
13.12.2017 04:00:00 5,1 4,1 7 4 10 5 SSW 1024,8 20 0 0,0
13.12.2017 03:00:00 6,3 5,1 4 2 10 6 S 1024,7 20 0 0,0
13.12.2017 02:00:00 7,3 5,9 4 2 9 5 SW 1024,3 20 0 0,0
13.12.2017 01:00:00 8,8 7,1 7 4 25 13 N 1024,1 20 0 -
13.12.2017 00:00:00 9,1 7,3 16 9 29 16 N 1023,3 20 0 0,0
12.12.2017 23:00:00 8,8 7,1 10 6 20 11 NNW 1022,2 20 0 0,0
12.12.2017 22:00:00 9,3 7,3 10 5 19 11 NW 1021,6 20 0 0,0
12.12.2017 21:00:00 7,7 5,6 8 5 14 7 NNE 1020,9 20 0 0,0
12.12.2017 20:00:00 7,8 5,8 4 2 9 5 WSW 1019,8 20 0 0,0
12.12.2017 19:00:00 8,7 5,8 4 2 8 4 WSW 1018,5 20 0 -
12.12.2017 18:00:00 10,7 6,2 2 1 16 9 N 1017,7 20 0 0,0
12.12.2017 17:00:00 12,1 5,9 7 4 22 12 NNW 1016,7 20 0 0,0
12.12.2017 16:00:00 13,2 5,8 10 6 22 12 NW 1015,7 20 30 0,0
12.12.2017 15:00:00 13,9 6,1 10 5 21 11 NW 1014,7 20 12 0,0

tt = Température de l'air
td = dewpoint
ff = Vitesse du vent
fx = gusts
dd = Direction du vent
ppp = reduced air pressure
vv = visibility
sd = Ensoleillement
rr = Quantités de précipitations

stations d'obs. à proximité